Regional Weather Roundup
Issued by NWS

Home | Current Version | Previous Version | Text Only | Print | Product List | Glossary Off
Versions: 1 2 3 4 5 6 7 8 9 10 11 12 13 14 15 16 17 18 19 20 21 22 23 24 25 26 27 28 29 30 31 32 33 34 35 36 37 38 39 40 41 42 43 44 45 46 47 48 49 50

046
ASUS44 KLIX 221705
RWRLA
LOUISIANA WEATHER ROUNDUP
NATIONAL WEATHER SERVICE NEW ORLEANS LA
1200 PM CDT FRI AUG 22 2014

NOTE: "FAIR" INDICATES FEW OR NO CLOUDS BELOW 12,000 FEET WITH NO
      SIGNIFICANT WEATHER AND/OR OBSTRUCTIONS TO VISIBILITY.
      SKY/WX - SKY CONDITION AND SIGNIFICANT WEATHER.
      TMP - AIR TEMPERATURE.    DP   - DEWPOINT TEMPERATURE.
      RH  - RELATIVE HUMIDITY.  PRES - PRESSURE.
      HX  - HEAT INDEX.         WCI  - WIND CHILL INDEX.

*  THESE STATIONS ARE NOT NWS OR FAA STATIONS AND ARE NOT UNDER
   NWS QUALITY CONTROL.

LAZ040-048-061>063-065-066-069-221800-
SOUTHEAST LOUISIANA

CITY           SKY/WX    TMP DP  RH WIND       PRES   REMARKS
N.O. AUDUBON     N/A     93  77  60 MISG        N/A  HX 107
N.O. INTL ARPT MOSUNNY   89  75  63 N9        30.12S HX  99
N.O. LAKEFRONT SUNNY     87  75  67 N7        30.13S HX  96
N.O. DOWNTOWN* FAIR      90  72  55 NW7       30.12F HX  96
SLIDELL        MOSUNNY   91  75  59 NW7       30.11F HX 101
BATON ROUGE    PTSUNNY   88  72  58 CALM      30.12F
BOOTHVILLE     SUNNY     89  73  59 N7        30.13S HX  97
BELLE CHASSE   PTSUNNY   89  73  59 VRB5      30.11S HX  97
BOGALUSA*      PTSUNNY   90  75  59 N5        30.13F HX 100
GALLIANO*      NOT AVBL
NEW ROADS*     PTSUNNY   86  76  70 MISG      30.12F HX  96
GONZALES*      FAIR      89  76  66 NW5       30.11F HX 100
HAMMOND*       NOT AVBL
HOUMA*         MOSUNNY   91  72  52 N6        30.12S HX  98
PORT FOURCHON* SUNNY     91  72  52 NE6       30.13F HX  98

$$

LAZ041-044-053-054-221800-
SOUTHWEST LOUISIANA

CITY           SKY/WX    TMP DP  RH WIND       PRES   REMARKS
LAKE CHARLES   MOSUNNY   89  75  63 VRB5      30.10F HX  99
LAFAYETTE      PTSUNNY   91  75  59 SW5       30.11F HX 101
PATTERSON      MOSUNNY   90  77  66 CALM        N/A  HX 102
SALT POINT       N/A     91  77  63 W5        30.11S HX 104
NEW IBERIA     MOSUNNY   92  75  57 CALM      30.12F HX 103
CHENAULT AIRPK NOT AVBL

$$

LAZ027-028-221800-
CENTRAL LOUISIANA

CITY           SKY/WX    TMP DP  RH WIND       PRES   REMARKS
FORT POLK      MOSUNNY   86  73  65 VRB6      30.11F
ALEXANDRIA INT PTSUNNY   88  76  67 SW6       30.09F HX  99
ALEXANDRIA     MOSUNNY   90  74  59 SW7       30.11F HX  99

$$

LAZ001-002-221800-
NORTHWEST LOUISIANA

CITY           SKY/WX    TMP DP  RH WIND       PRES   REMARKS
SHREVEPORT     SUNNY     89  73  59 W7        30.09F HX  97
BARKSDALE AFB  SUNNY     89  72  56 VRB3      30.09F HX  97
DTN SHREVEPORT SUNNY     89  73  59 SW8       30.09F HX  97

$$

LAZ014-016-221800-
NORTHEAST LOUISIANA

CITY           SKY/WX    TMP DP  RH WIND       PRES   REMARKS
MONROE         SUNNY     89  73  59 W7        30.11S HX  97
TALLULAH       SUNNY     88  73  61 S5        30.12S HX  95

$$




USA.gov is the U.S. government's official web portal to all federal, state and local government web resources and services.